Date String (YYYY-MM-DD hh:mm:ss) UTC,Instrument flags,Ambient pressure (hPa),Sample flow (lpm),Bypass flow (lpm),Sample temperature (°C),Ambient temperature (°C),ASC tube jacket temperature (°C),LED temperature (°C),Box temperature (°C),Sample RH (%),Span deviation,Mass concentration (μg/m³),Mass concentration (μg/m³),Mass concentration (μg/m³)
DateTimeUTC,F1_M11,P_M11,Q1_M11,Q2_M11,T1_M11,T2_M11,T3_M11,T4_M11,T5_M11,U1_M11,ZSPAN_M11,X0_M11,X2_M11,X1_M11
2022-05-15 01:00:00,,0825.3,5.00,0.00,29.4,26.6,00.0,38.3,31.1,11.5,0000.0,0010.51,0003.75,0002.40
2022-05-15 01:01:00,,0825.3,5.00,0.00,29.4,27.0,00.0,38.3,31.2,11.5,0000.0,0011.43,0003.72,0002.41
2022-05-15 01:02:00,,0825.3,4.99,0.00,29.5,27.4,00.0,38.3,31.2,11.4,0000.0,0011.69,0003.73,0002.38
2022-05-15 01:03:00,,0825.3,5.00,0.00,29.5,27.7,00.0,38.3,31.3,11.5,0000.0,0011.81,0003.75,0002.37
2022-05-15 01:04:00,,0825.4,5.00,0.00,29.5,28.0,00.0,38.3,31.4,11.6,0000.0,0012.26,0003.76,0002.36
2022-05-15 01:05:00,,0825.4,5.00,0.00,29.6,28.3,00.0,38.3,31.4,11.4,0000.0,0012.64,0003.80,0002.35
2022-05-15 01:06:00,,0825.4,4.99,0.00,29.6,28.5,00.0,38.4,31.5,11.4,0000.0,0012.63,0003.82,0002.35
2022-05-15 01:07:00,,0825.4,5.01,0.00,29.6,28.6,00.0,38.4,31.5,11.1,0000.0,0013.22,0003.81,0002.34
2022-05-15 01:08:00,,0825.4,5.00,0.00,29.7,28.8,00.0,38.4,31.6,11.0,0000.0,0013.58,0003.84,0002.35
2022-05-15 01:09:00,,0825.3,5.01,0.00,29.7,28.7,00.0,38.4,31.6,10.7,0000.0,0014.18,0003.89,0002.36
2022-05-15 01:10:00,,0825.4,5.00,0.00,29.7,26.6,00.0,38.5,31.1,11.1,0000.0,0013.50,0003.87,0002.35
2022-05-15 01:11:00,,0825.4,4.99,0.00,29.5,24.8,00.0,38.4,30.8,11.2,0000.0,0013.27,0003.88,0002.34
2022-05-15 01:12:00,,0825.4,5.01,0.00,29.4,25.1,00.0,38.4,30.9,11.5,0000.0,0012.16,0003.86,0002.33
2022-05-15 01:13:00,,0825.4,5.00,0.00,29.3,25.6,00.0,38.3,30.9,11.8,0000.0,0012.23,0003.89,0002.36
2022-05-15 01:14:00,,0825.4,5.00,0.00,29.3,26.1,00.0,38.3,31.0,11.9,0000.0,0012.33,0003.91,0002.37
2022-05-15 01:15:00,,0825.4,5.00,0.00,29.3,26.6,00.0,38.3,31.0,11.6,0000.0,0012.05,0003.89,0002.40
2022-05-15 01:16:00,,0825.5,5.01,0.00,29.3,27.1,00.0,38.2,31.1,11.5,0000.0,0011.90,0003.94,0002.41
2022-05-15 01:17:00,,0825.4,4.99,0.00,29.3,27.5,00.0,38.2,31.2,11.5,0000.0,0012.51,0003.98,0002.44
2022-05-15 01:18:00,,0825.5,5.00,0.00,29.4,27.8,00.0,38.2,31.2,11.5,0000.0,0012.34,0004.06,0002.51
2022-05-15 01:19:00,,0825.5,5.00,0.00,29.4,28.0,00.0,38.3,31.3,11.7,0000.0,0012.63,0004.12,0002.57
2022-05-15 01:20:00,,0825.5,4.99,0.00,29.5,28.2,00.0,38.3,31.3,11.9,0000.0,0012.83,0004.15,0002.64
2022-05-15 01:21:00,,0825.5,5.01,0.00,29.5,28.4,00.0,38.3,31.4,11.9,0000.0,0013.41,0004.23,0002.71
2022-05-15 01:22:00,,0825.6,5.00,0.00,29.5,28.6,00.0,38.3,31.4,11.6,0000.0,0013.58,0004.24,0002.76
2022-05-15 01:23:00,,0825.5,4.99,0.00,29.6,28.7,00.0,38.3,31.5,12.0,0000.0,0013.99,0004.26,0002.80
2022-05-15 01:24:00,,0825.6,5.01,0.00,29.6,28.8,00.0,38.3,31.5,11.8,0000.0,0014.35,0004.24,0002.83
2022-05-15 01:25:00,,0825.6,5.01,0.00,29.7,28.9,00.0,38.4,31.6,11.5,0000.0,0014.84,0004.28,0002.89
2022-05-15 01:26:00,,0825.5,5.00,0.00,29.7,29.0,00.0,38.4,31.6,11.4,0000.0,0015.13,0004.33,0002.91
2022-05-15 01:27:00,,0825.6,5.00,0.00,29.7,28.2,00.0,38.4,31.5,11.3,0000.0,0015.10,0004.34,0002.92
2022-05-15 01:28:00,,0825.5,5.01,0.00,29.6,26.2,00.0,38.4,31.1,11.1,0000.0,0015.16,0004.43,0002.93
2022-05-15 01:29:00,,0825.5,5.00,0.00,29.5,26.0,00.0,38.4,31.1,11.2,0000.0,0015.50,0004.48,0002.90
2022-05-15 01:30:00,,0825.5,5.00,0.00,29.5,26.4,00.0,38.4,31.1,11.1,0000.0,0015.22,0004.43,0002.89
2022-05-15 01:31:00,,0825.6,5.00,0.00,29.5,26.8,00.0,38.4,31.1,11.3,0000.0,0014.53,0004.40,0002.87
2022-05-15 01:32:00,,0825.6,5.00,0.00,29.5,27.2,00.0,38.3,31.2,11.3,0000.0,0014.48,0004.43,0002.84
2022-05-15 01:33:00,,0825.6,5.00,0.00,29.5,27.6,00.0,38.3,31.3,11.2,0000.0,0014.63,0004.43,0002.84
2022-05-15 01:34:00,,0825.7,5.01,0.00,29.5,27.9,00.0,38.3,31.3,11.2,0000.0,0014.61,0004.43,0002.86
2022-05-15 01:35:00,,0825.7,5.00,0.00,29.5,28.1,00.0,38.4,31.4,11.3,0000.0,0014.44,0004.44,0002.88
2022-05-15 01:36:00,,0825.7,5.01,0.00,29.6,28.4,00.0,38.4,31.4,11.4,0000.0,0014.10,0004.49,0002.89
2022-05-15 01:37:00,,0825.7,4.99,0.00,29.6,28.5,00.0,38.4,31.5,11.5,0000.0,0013.94,0004.53,0002.91
2022-05-15 01:38:00,,0825.7,4.99,0.00,29.7,28.7,00.0,38.4,31.5,11.6,0000.0,0013.75,0004.51,0002.91
2022-05-15 01:39:00,,0825.8,5.00,0.00,29.7,28.8,00.0,38.4,31.6,11.4,0000.0,0013.71,0004.40,0002.93
2022-05-15 01:40:00,,0825.8,5.00,0.00,29.8,28.9,00.0,38.5,31.7,11.3,0000.0,0014.66,0004.31,0002.97
2022-05-15 01:41:00,,0825.8,5.01,0.00,29.8,28.7,00.0,38.5,31.6,11.4,0000.0,0014.19,0004.33,0002.99
2022-05-15 01:42:00,,0825.9,4.99,0.00,29.7,26.6,00.0,38.5,31.2,11.4,0000.0,0014.97,0004.38,0003.03
2022-05-15 01:43:00,,0825.8,5.00,0.00,29.5,24.8,00.0,38.5,30.8,11.5,0000.0,0014.72,0004.39,0003.07
2022-05-15 01:44:00,,0825.9,5.00,0.00,29.4,25.0,00.0,38.4,30.8,11.6,0000.0,0015.22,0004.34,0003.09
2022-05-15 01:45:00,,0825.9,5.00,0.00,29.3,25.5,00.0,38.4,30.8,11.6,0000.0,0015.14,0004.36,0003.10
2022-05-15 01:46:00,,0825.9,5.00,0.00,29.3,26.1,00.0,38.3,30.9,11.6,0000.0,0014.90,0004.43,0003.09
2022-05-15 01:47:00,,0825.8,4.99,0.00,29.3,26.6,00.0,38.3,31.0,11.5,0000.0,0014.61,0004.42,0003.07
2022-05-15 01:48:00,,0825.9,5.00,0.00,29.3,27.0,00.0,38.3,31.1,11.6,0000.0,0014.93,0004.37,0003.04
2022-05-15 01:49:00,,0825.9,5.00,0.00,29.3,27.4,00.0,38.3,31.1,11.4,0000.0,0015.18,0004.39,0003.03
2022-05-15 01:50:00,,0826.0,5.00,0.00,29.4,27.7,00.0,38.3,31.2,11.7,0000.0,0014.95,0004.46,0003.01
2022-05-15 01:51:00,,0826.1,5.00,0.00,29.4,28.0,00.0,38.3,31.2,11.8,0000.0,0013.44,0004.46,0002.96
2022-05-15 01:52:00,,0826.0,4.99,0.00,29.5,28.2,00.0,38.3,31.3,11.9,0000.0,0013.74,0004.44,0002.90
2022-05-15 01:53:00,,0826.0,4.99,0.00,29.5,28.3,00.0,38.3,31.4,11.6,0000.0,0013.31,0004.41,0002.85
2022-05-15 01:54:00,,0826.0,5.00,0.00,29.5,28.4,00.0,38.3,31.4,11.5,0000.0,0013.63,0004.33,0002.78
2022-05-15 01:55:00,,0826.0,4.99,0.00,29.6,28.6,00.0,38.3,31.4,11.6,0000.0,0013.11,0004.32,0002.73
2022-05-15 01:56:00,,0826.1,5.01,0.00,29.6,28.7,00.0,38.4,31.5,11.7,0000.0,0013.04,0004.31,0002.67
2022-05-15 01:57:00,,0826.1,4.99,0.00,29.7,28.7,00.0,38.4,31.5,11.7,0000.0,0013.19,0004.20,0002.64
2022-05-15 01:58:00,,0826.2,5.00,0.00,29.7,28.8,00.0,38.4,31.6,11.7,0000.0,0013.24,0004.13,0002.61
2022-05-15 01:59:00,,0826.1,5.00,0.00,29.7,28.9,00.0,38.4,31.6,11.5,0000.0,0012.71,0004.10,0002.60
